Santa Ana, CA

4:14 PM PDT on March 23, 2017 (GMT -0700)
John Wayne-Orange County

Weather History for KSNA - December, 2011

Change the Weather History Date:

Friday, December 2, 2011

  Actual Average Record
Temperature  
Mean Temperature 58 °F 58 °F  
Max Temperature 66 °F 67 °F 80 °F (2006)
Min Temperature 49 °F 48 °F 39 °F (1945)
Degree Days  
Heating Degree Days 7 7  
Month to date heating degree days 13 14  
Since 1 July heating degree days 190 167  
Cooling Degree Days 0 0  
Month to date cooling degree days 0 0  
Year to date cooling degree days 805 876  
Growing Degree Days 8 (Base 50)    
Moisture  
Dew Point 38 °F    
Average Humidity 40    
Maximum Humidity 52    
Minimum Humidity 27    
Precipitation  
Precipitation 0.00 in 0.04 in 0.72 in (2014)
Month to date precipitation 0.00 0.07  
Year to date precipitation 7.35 11.32  
Since 1 July precipitation 2.00  
Snow  
Snow 0.00 in - - ()
Month to date snowfall 0.0  
Year to date snowfall 0.0  
Snow Depth 0.00 in    
Sea Level Pressure  
Sea Level Pressure 29.97 in    
Wind  
Wind Speed 4 mph (SW)    
Max Wind Speed 13 mph    
Max Gust Speed 17 mph    
Visibility 9 miles    
Events      
T = Trace of Precipitation, MM = Missing Value Source: NWS Daily Summary

Daily Weather History Graph

Daily Weather History Graph

Search for Another Location

Airport or City:

Trip Planner

Search our weather history database for the weather conditions in past years. The results will help you decide how hot, cold, wet, or windy it might be!

Date:

Astronomy

Dec. 02, 2011 Rise Set
Actual Time 6:38 AM PST 4:42 PM PST
Civil Twilight 6:11 AM PST 5:10 PM PST
Nautical Twilight 5:40 AM PST 5:40 PM PST
Astronomical Twilight 5:10 AM PST 6:11 PM PST
Moon 12:06 PM PST (12/2) No Moon Set
Length of Visible Light 10h 58m
Length of Day
10h 04m
First Quarter, 54% of the Moon is Illuminated
Dec 2
First Quarter
Dec 10
Full
Dec 17
Last Quarter
Dec 24
New
Dec 31
First Quarter

Hourly Weather History & Observations

Time (PST) Temp. Dew Point Humidity Pressure Visibility Wind Dir Wind Speed Gust Speed Precip Events Conditions
12:53 AM 60.1 °F 28.9 °F 31% 29.92 in 10.0 mi ENE 8.1 mph - N/A   Clear
1:53 AM 59.0 °F 28.9 °F 32% 29.93 in 10.0 mi NE 4.6 mph - N/A   Clear
2:53 AM 55.0 °F 30.9 °F 40% 29.95 in 10.0 mi Calm Calm - N/A   Clear
3:53 AM 55.9 °F 30.9 °F 39% 29.96 in 10.0 mi WNW 3.5 mph - N/A   Scattered Clouds
4:53 AM 51.1 °F 34.0 °F 52% 29.98 in 10.0 mi Calm Calm - N/A   Partly Cloudy
5:53 AM 52.0 °F 32.0 °F 47% 29.97 in 10.0 mi Calm Calm - N/A   Partly Cloudy
6:53 AM 50.0 °F 34.0 °F 54% 29.99 in 10.0 mi Calm Calm - N/A   Partly Cloudy
7:53 AM 55.0 °F 36.0 °F 49% 30.00 in 10.0 mi Calm Calm - N/A   Partly Cloudy
8:53 AM 60.1 °F 34.0 °F 38% 30.04 in 9.0 mi North 3.5 mph - N/A   Partly Cloudy
9:53 AM 63.0 °F 39.9 °F 43% 30.02 in 8.0 mi SSE 4.6 mph - N/A   Scattered Clouds
10:53 AM 64.9 °F 37.0 °F 36% 29.99 in 8.0 mi Variable 4.6 mph - N/A   Scattered Clouds
11:53 AM 64.0 °F 43.0 °F 46% 29.99 in 9.0 mi WSW 8.1 mph - N/A   Scattered Clouds
12:53 PM 64.9 °F 36.0 °F 34% 29.97 in 10.0 mi West 8.1 mph - N/A   Partly Cloudy
1:53 PM 66.0 °F 39.0 °F 37% 29.95 in 9.0 mi SW 9.2 mph - N/A   Scattered Clouds
2:53 PM 62.1 °F 39.9 °F 44% 29.96 in 8.0 mi Variable 5.8 mph - N/A   Mostly Cloudy
3:53 PM 62.1 °F 41.0 °F 46% 29.96 in 8.0 mi WSW 10.4 mph - N/A   Mostly Cloudy
4:53 PM 60.1 °F 45.0 °F 57% 29.96 in 8.0 mi WSW 4.6 mph - N/A   Mostly Cloudy
5:53 PM 59.0 °F 44.1 °F 58% 29.96 in 9.0 mi SW 4.6 mph - N/A   Partly Cloudy
6:53 PM 57.9 °F 45.0 °F 62% 29.96 in 10.0 mi SSW 3.5 mph - N/A   Clear
7:53 PM 57.0 °F 45.0 °F 64% 29.97 in 10.0 mi Calm Calm - N/A   Clear
8:53 PM 55.0 °F 44.1 °F 67% 29.97 in 10.0 mi Variable 4.6 mph - N/A   Clear
9:53 PM 54.0 °F 43.0 °F 66% 29.97 in 10.0 mi Variable 4.6 mph - N/A   Clear
10:53 PM 54.0 °F 42.1 °F 64% 29.98 in 10.0 mi ESE 3.5 mph - N/A   Clear
11:53 PM 52.0 °F 41.0 °F 66% 29.97 in 10.0 mi Calm Calm - N/A   Clear